Retour au catalogue

NOAA 16 DEB

ActifSSO
NORAD 41298·DEBRIS·🇺🇸 United States

Lancé Sep 21, 2000 depuis Vandenberg Space Force Base

Loading…

Prochains Passages (prochaines 24 heures)

TLE

FraisSource: Space-Track

Époque: Sep 14, 2026, 10:36 UTC

1 41298U 00055HA  26257.44188908  .00002297  00000-0  92950-3 0  9996
2 41298  98.7061 333.1338 0050194 126.8321 233.7480 14.28085685553415

Suivez NOAA 16 DEB en temps réel avec AllMySat

Download on the App Store